Preview of NWS' New Version of Forecast
This preview is not operational and should not be used for support decisions.

Regional Weather Roundup (RWR)

Issued by National Weather Service (NWS)

                            
000
ASUS45 KCYS 201810
RWRWY 

WYOMING REGIONAL WEATHER ROUNDUP
NATIONAL WEATHER SERVICE CHEYENNE WY
1200 PM MDT TUE AUG 20 2019

NOTE:  "FAIR" INDICATES FEW OR NO CLOUDS BELOW 12,000 FEET
WITH NO SIGNIFICANT WEATHER AND/OR OBSTRUCTIONS TO VISIBILITY.

WYZ001-201900-
YELLOWSTONE NATIONAL PARK
  
CITY           SKY/WX    TMP DP  RH WIND       PRES   REMARKS
LK YELLOWSTONE   N/A     69  32  25 E5        30.39F                  
6HR MIN TEMP:  39; 6HR MAX TEMP:  69;                                

W YELLOWSTONE  NOT AVBL                                               

$$
WYZ002>013-054>058-071-098>099-201900-
NORTHERN WYOMING
  
CITY           SKY/WX    TMP DP  RH WIND       PRES   REMARKS
JACKSON        FAIR      73  37  27 SE3       30.28F                  
CODY           FAIR      76  46  34 NE7       30.20F                  
GREYBULL       FAIR      85  44  23 NW3       30.10F                  
6HR MIN TEMP:  58; 6HR MAX TEMP:  86;                                

WORLAND        FAIR      82  48  30 N6        30.12F                  
6HR MIN TEMP:  57; 6HR MAX TEMP:  82;                                

SHERIDAN       FAIR      87  46  24 SE10      30.12F                  
6HR MIN TEMP:  55; 6HR MAX TEMP:  88;                                

BUFFALO        FAIR      81  47  30 E9        30.20F                  
6HR MIN TEMP:  60; 6HR MAX TEMP:  82;                                

GILLETTE       FAIR      81  52  36 N6        30.15F                  
6HR MIN TEMP:  51; 6HR MAX TEMP:  83;                                

HULETT         FAIR      75  54  46 E12G17    30.20R                  
NEWCASTLE      FAIR      88  37  16 S5        30.14                   

$$
WYZ014>020-022>026-101>103-201900-
CENTRAL WYOMING
  
CITY           SKY/WX    TMP DP  RH WIND       PRES   REMARKS
BIG PINEY      FAIR      76  30  18 VRB6      30.33F                  
6HR MIN TEMP:  42; 6HR MAX TEMP:  78;                                

PINEDALE       FAIR      77  25  14 SE3       30.34                   
DUBOIS         FAIR      79  28  15 E10       30.31                   
LANDER         FAIR      83  38  20 N6        30.21F                  
6HR MIN TEMP:  60; 6HR MAX TEMP:  83;                                

RIVERTON       FAIR      81  36  19 MISG      30.20F                  
6HR MIN TEMP:  57; 6HR MAX TEMP:  81;                                

CASPER         FAIR      83  49  30 N7        30.19F                  
6HR MIN TEMP:  57; 6HR MAX TEMP:  84;                                

DOUGLAS        FAIR      85  40  20 W6        30.17F                  
6HR MIN TEMP:  49; 6HR MAX TEMP:  85;                                


$$
WYZ021-027>030-104>119-201900-
SOUTHERN WYOMING
  
CITY           SKY/WX    TMP DP  RH WIND       PRES   REMARKS
EVANSTON       FAIR      80  18  10 SW8       30.31F                  
6HR MIN TEMP:  54; 6HR MAX TEMP:  80;                                

KEMMERER       FAIR      81  16   9 S3        30.34S                  
ROCK SPRINGS   FAIR      82  23  11 NE6       30.29F                  
6HR MIN TEMP:  56; 6HR MAX TEMP:  83;                                

DIXON          FAIR      83  25  12 SE14      30.31F                  
RAWLINS        FAIR      86  25  11 NW12      30.29F                  
6HR MIN TEMP:  47; 6HR MAX TEMP:  87;                                

SARATOGA       FAIR      84  27  12 NE7       30.33S                  
LARAMIE        FAIR      82  21  10 VRB3      30.32F                  
6HR MIN TEMP:  47; 6HR MAX TEMP:  85;                                

CHEYENNE       FAIR      93  27   9 W3        30.22F                  
6HR MIN TEMP:  64; 6HR MAX TEMP:  94;                                

TORRINGTON     FAIR      88  65  46 E13G23    30.10S HX  90           
6HR MIN TEMP:  63; 6HR MAX TEMP:  89;                                

PINE BLUFFS    FAIR      90  43  19 NE15      30.17R                  

$$